Time,TemperatureF,DewpointF,PressureIn,WindDirection,WindDirectionDegrees,WindSpeedMPH,WindSpeedGustMPH,Humidity,HourlyPrecipIn,Conditions,Clouds,dailyrainin,SoftwareType,DateUTC
2013-04-24 00:01:00,56.3,0.5,29.18,North,0,0.0,0.0,1,0.22,,,0.46,WUHU216HW,2013-04-24 04:01:00,
2013-04-24 00:03:00,56.3,0.5,29.18,North,0,0.0,0.0,1,0.23,,,0.00,WUHU216HW,2013-04-24 04:03:00,
2013-04-24 00:08:00,56.2,0.4,29.18,North,0,0.0,0.0,1,0.24,,,0.03,WUHU216HW,2013-04-24 04:08:00,
2013-04-24 00:13:00,56.2,0.4,29.18,North,0,0.0,0.0,1,0.24,,,0.05,WUHU216HW,2013-04-24 04:13:00,
2013-04-24 00:18:00,56.2,0.4,29.19,North,0,0.0,0.0,1,0.24,,,0.07,WUHU216HW,2013-04-24 04:18:00,
2013-04-24 00:23:00,56.2,0.4,29.18,North,0,0.0,0.0,1,0.24,,,0.11,WUHU216HW,2013-04-24 04:23:00,
2013-04-24 00:28:00,56.2,0.4,29.15,North,0,0.0,0.0,1,0.26,,,0.14,WUHU216HW,2013-04-24 04:28:00,
2013-04-24 00:33:00,56.2,0.4,29.17,North,0,0.0,0.0,1,0.24,,,0.16,WUHU216HW,2013-04-24 04:33:00,
2013-04-24 00:38:00,56.0,0.2,29.17,North,0,0.0,0.0,1,0.23,,,0.17,WUHU216HW,2013-04-24 04:38:00,
2013-04-24 00:44:00,56.0,0.2,29.16,North,0,0.0,0.0,1,0.23,,,0.18,WUHU216HW,2013-04-24 04:44:00,
2013-04-24 00:49:00,56.0,0.2,29.15,North,0,0.0,0.0,1,0.23,,,0.19,WUHU216HW,2013-04-24 04:49:00,
2013-04-24 00:54:00,55.8,0.1,29.16,North,0,0.0,0.0,1,0.20,,,0.19,WUHU216HW,2013-04-24 04:54:00,
2013-04-24 00:59:00,55.8,0.1,29.16,North,0,0.0,0.0,1,0.19,,,0.19,WUHU216HW,2013-04-24 04:59:00,
2013-04-24 01:04:00,55.8,0.1,29.15,North,0,0.0,0.0,1,0.18,,,0.20,WUHU216HW,2013-04-24 05:04:00,
2013-04-24 01:09:00,55.8,0.1,29.15,North,0,0.0,0.0,1,0.14,,,0.20,WUHU216HW,2013-04-24 05:09:00,
2013-04-24 01:14:00,55.8,0.1,29.15,North,0,0.0,0.0,1,0.12,,,0.20,WUHU216HW,2013-04-24 05:14:00,
2013-04-24 01:19:00,55.8,0.1,29.15,North,0,0.0,0.0,1,0.10,,,0.20,WUHU216HW,2013-04-24 05:19:00,
2013-04-24 01:25:00,55.8,0.1,29.16,North,0,0.0,0.0,1,0.07,,,0.20,WUHU216HW,2013-04-24 05:25:00,
2013-04-24 01:30:00,56.0,0.2,29.15,North,0,0.0,0.0,1,0.05,,,0.21,WUHU216HW,2013-04-24 05:30:00,
2013-04-24 01:35:00,55.8,0.1,29.15,North,0,0.0,0.0,1,0.04,,,0.21,WUHU216HW,2013-04-24 05:35:00,
2013-04-24 01:40:00,55.8,0.1,29.15,North,0,0.0,0.0,1,0.03,,,0.21,WUHU216HW,2013-04-24 05:40:00,
2013-04-24 01:45:00,55.8,0.1,29.14,North,0,0.0,0.0,1,0.04,,,0.21,WUHU216HW,2013-04-24 05:45:00,
2013-04-24 01:50:00,55.8,0.1,29.14,North,0,0.0,0.0,1,0.05,,,0.24,WUHU216HW,2013-04-24 05:50:00,
2013-04-24 01:55:00,53.6,-1.6,29.16,North,0,0.0,0.0,1,0.06,,,0.25,WUHU216HW,2013-04-24 05:55:00,
2013-04-24 02:00:00,51.5,-3.3,29.15,North,0,0.0,0.0,1,0.07,,,0.26,WUHU216HW,2013-04-24 06:00:00,
2013-04-24 02:05:00,50.4,-4.2,29.16,North,0,0.0,0.0,1,0.08,,,0.28,WUHU216HW,2013-04-24 06:05:00,
2013-04-24 02:11:00,49.7,-4.8,29.16,North,0,0.0,0.0,1,0.08,,,0.28,WUHU216HW,2013-04-24 06:11:00,
2013-04-24 02:16:00,49.3,-5.0,29.17,North,0,0.0,0.0,1,0.09,,,0.29,WUHU216HW,2013-04-24 06:16:00,
2013-04-24 02:21:00,49.0,-5.2,29.18,North,0,0.0,0.0,1,0.09,,,0.29,WUHU216HW,2013-04-24 06:21:00,
2013-04-24 02:26:00,48.6,-5.5,29.18,North,0,0.0,0.0,1,0.09,,,0.29,WUHU216HW,2013-04-24 06:26:00,
2013-04-24 02:31:00,47.9,-6.0,29.18,North,0,0.0,0.0,1,0.10,,,0.31,WUHU216HW,2013-04-24 06:31:00,
2013-04-24 02:36:00,47.2,-6.7,29.19,North,0,0.0,0.0,1,0.12,,,0.33,WUHU216HW,2013-04-24 06:36:00,
2013-04-24 02:41:00,46.6,-7.0,29.18,North,0,0.0,0.0,1,0.12,,,0.34,WUHU216HW,2013-04-24 06:41:00,
2013-04-24 02:46:00,46.4,-7.2,29.18,North,0,0.0,0.0,1,0.10,,,0.34,WUHU216HW,2013-04-24 06:46:00,
2013-04-24 02:51:00,46.1,-7.5,29.16,North,0,0.0,0.0,1,0.09,,,0.34,WUHU216HW,2013-04-24 06:51:00,
2013-04-24 02:57:00,46.1,-7.5,29.17,North,0,0.0,0.0,1,0.08,,,0.34,WUHU216HW,2013-04-24 06:57:00,
2013-04-24 03:02:00,45.9,-7.6,29.19,North,0,0.0,0.0,1,0.07,,,0.34,WUHU216HW,2013-04-24 07:02:00,
2013-04-24 03:07:00,45.7,-7.7,29.17,North,0,0.0,0.0,1,0.08,,,0.36,WUHU216HW,2013-04-24 07:07:00,
2013-04-24 03:12:00,45.4,-8.1,29.17,North,0,0.0,0.0,1,0.09,,,0.37,WUHU216HW,2013-04-24 07:12:00,
2013-04-24 03:17:00,45.2,-8.2,29.18,North,0,0.0,0.0,1,0.08,,,0.37,WUHU216HW,2013-04-24 07:17:00,
2013-04-24 03:22:00,45.2,-8.2,29.19,North,0,0.0,0.0,1,0.09,,,0.38,WUHU216HW,2013-04-24 07:22:00,
2013-04-24 03:27:00,45.0,-8.4,29.19,North,0,0.0,0.0,1,0.07,,,0.38,WUHU216HW,2013-04-24 07:27:00,
2013-04-24 03:32:00,44.6,-8.6,29.19,North,0,0.0,0.0,1,0.07,,,0.40,WUHU216HW,2013-04-24 07:32:00,
2013-04-24 03:37:00,44.3,-8.9,29.19,North,0,0.0,0.0,1,0.07,,,0.42,WUHU216HW,2013-04-24 07:37:00,
2013-04-24 03:43:00,44.3,-8.9,29.19,North,0,0.0,0.0,1,0.08,,,0.42,WUHU216HW,2013-04-24 07:43:00,
2013-04-24 03:48:00,44.1,-9.1,29.19,North,0,0.0,0.0,1,0.09,,,0.44,WUHU216HW,2013-04-24 07:48:00,
2013-04-24 03:53:00,43.9,-9.2,29.20,North,0,0.0,0.0,1,0.09,,,0.44,WUHU216HW,2013-04-24 07:53:00,
2013-04-24 03:58:00,43.7,-9.4,29.20,North,0,0.0,0.0,1,0.10,,,0.44,WUHU216HW,2013-04-24 07:58:00,
2013-04-24 04:03:00,43.7,-9.4,29.21,North,0,0.0,0.0,1,0.08,,,0.44,WUHU216HW,2013-04-24 08:03:00,
2013-04-24 04:08:00,43.2,-9.8,29.20,North,0,0.0,0.0,1,0.08,,,0.44,WUHU216HW,2013-04-24 08:08:00,
2013-04-24 04:13:00,42.8,-10.1,29.21,North,0,0.0,0.0,1,0.08,,,0.45,WUHU216HW,2013-04-24 08:13:00,
2013-04-24 04:18:00,42.7,-10.2,29.21,North,0,0.0,0.0,1,0.08,,,0.47,WUHU216HW,2013-04-24 08:18:00,
2013-04-24 04:23:00,42.5,-10.3,29.19,North,0,0.0,0.0,1,0.08,,,0.47,WUHU216HW,2013-04-24 08:23:00,
2013-04-24 04:28:00,42.5,-10.3,29.19,North,0,0.0,0.0,1,0.07,,,0.47,WUHU216HW,2013-04-24 08:28:00,
2013-04-24 04:34:00,42.3,-10.4,29.20,North,0,0.0,0.0,1,0.05,,,0.47,WUHU216HW,2013-04-24 08:34:00,
2013-04-24 04:39:00,42.3,-10.4,29.20,North,0,0.0,0.0,1,0.04,,,0.47,WUHU216HW,2013-04-24 08:39:00,
2013-04-24 04:44:00,42.1,-10.6,29.22,North,0,0.0,0.0,1,0.03,,,0.47,WUHU216HW,2013-04-24 08:44:00,
2013-04-24 04:49:00,41.9,-10.7,29.20,North,0,0.0,0.0,1,0.03,,,0.47,WUHU216HW,2013-04-24 08:49:00,
2013-04-24 04:54:00,41.8,-10.8,29.19,North,0,0.0,0.0,1,0.03,,,0.47,WUHU216HW,2013-04-24 08:54:00,
2013-04-24 04:59:00,41.8,-10.8,29.22,North,0,0.0,0.0,1,0.03,,,0.47,WUHU216HW,2013-04-24 08:59:00,
2013-04-24 05:04:00,41.6,-11.0,29.23,North,0,0.0,0.0,1,0.04,,,0.49,WUHU216HW,2013-04-24 09:04:00,
2013-04-24 05:09:00,41.4,-11.1,29.22,North,0,0.0,0.0,1,0.04,,,0.49,WUHU216HW,2013-04-24 09:09:00,
2013-04-24 05:14:00,41.4,-11.1,29.22,North,0,0.0,0.0,1,0.05,,,0.52,WUHU216HW,2013-04-24 09:14:00,
2013-04-24 05:20:00,41.4,-11.1,29.21,North,0,0.0,0.0,1,0.06,,,0.53,WUHU216HW,2013-04-24 09:20:00,
2013-04-24 05:25:00,41.2,-11.2,29.20,North,0,0.0,0.0,1,0.07,,,0.54,WUHU216HW,2013-04-24 09:25:00,
2013-04-24 05:30:00,41.2,-11.2,29.20,North,0,0.0,0.0,1,0.08,,,0.54,WUHU216HW,2013-04-24 09:30:00,
2013-04-24 05:35:00,41.0,-11.3,29.22,North,0,0.0,0.0,1,0.08,,,0.55,WUHU216HW,2013-04-24 09:35:00,
2013-04-24 05:40:00,41.0,-11.3,29.21,North,0,0.0,0.0,1,0.08,,,0.55,WUHU216HW,2013-04-24 09:40:00,
2013-04-24 05:45:00,41.0,-11.3,29.21,North,0,0.0,0.0,1,0.09,,,0.56,WUHU216HW,2013-04-24 09:45:00,
2013-04-24 05:50:00,41.0,-11.3,29.21,North,0,0.0,0.0,1,0.08,,,0.56,WUHU216HW,2013-04-24 09:50:00,
2013-04-24 05:55:00,40.9,-11.5,29.20,North,0,0.0,0.0,1,0.08,,,0.56,WUHU216HW,2013-04-24 09:55:00,
2013-04-24 06:01:00,40.9,-11.5,29.21,North,0,0.0,0.0,1,0.08,,,0.57,WUHU216HW,2013-04-24 10:01:00,
2013-04-24 06:06:00,40.9,-11.5,29.22,North,0,0.0,0.0,1,0.07,,,0.57,WUHU216HW,2013-04-24 10:06:00,
2013-04-24 06:11:00,40.9,-11.5,29.23,North,0,0.0,0.0,1,0.07,,,0.58,WUHU216HW,2013-04-24 10:11:00,
2013-04-24 06:16:00,40.7,-11.6,29.21,North,0,0.0,0.0,1,0.07,,,0.60,WUHU216HW,2013-04-24 10:16:00,
2013-04-24 06:21:00,40.5,-11.8,29.20,North,0,0.0,0.0,1,0.08,,,0.61,WUHU216HW,2013-04-24 10:21:00,
2013-04-24 06:26:00,40.3,-11.9,29.23,North,0,0.0,0.0,1,0.07,,,0.62,WUHU216HW,2013-04-24 10:26:00,
2013-04-24 06:31:00,40.3,-11.9,29.23,North,0,0.0,0.0,1,0.08,,,0.63,WUHU216HW,2013-04-24 10:31:00,
2013-04-24 06:36:00,40.1,-12.1,29.24,North,0,0.0,0.0,1,0.08,,,0.63,WUHU216HW,2013-04-24 10:36:00,
2013-04-24 06:41:00,40.1,-12.1,29.24,North,0,0.0,0.0,1,0.08,,,0.63,WUHU216HW,2013-04-24 10:41:00,
2013-04-24 06:46:00,40.1,-12.1,29.21,North,0,0.0,0.0,1,0.09,,,0.65,WUHU216HW,2013-04-24 10:46:00,
2013-04-24 06:51:00,40.1,-12.1,29.24,North,0,0.0,0.0,1,0.09,,,0.65,WUHU216HW,2013-04-24 10:51:00,
2013-04-24 06:57:00,40.0,-12.2,29.24,North,0,0.0,0.0,1,0.10,,,0.66,WUHU216HW,2013-04-24 10:57:00,
2013-04-24 07:02:00,39.6,-12.5,29.23,North,0,0.0,0.0,1,0.09,,,0.66,WUHU216HW,2013-04-24 11:02:00,
2013-04-24 07:07:00,39.6,-12.5,29.24,North,0,0.0,0.0,1,0.09,,,0.67,WUHU216HW,2013-04-24 11:07:00,
2013-04-24 07:12:00,39.6,-12.5,29.22,North,0,0.0,0.0,1,0.08,,,0.67,WUHU216HW,2013-04-24 11:12:00,
2013-04-24 07:17:00,39.6,-12.5,29.22,North,0,0.0,0.0,1,0.07,,,0.69,WUHU216HW,2013-04-24 11:17:00,
2013-04-24 07:22:00,39.6,-12.5,29.23,North,0,0.0,0.0,1,0.07,,,0.69,WUHU216HW,2013-04-24 11:22:00,
2013-04-24 07:27:00,39.6,-12.5,29.23,North,0,0.0,0.0,1,0.08,,,0.70,WUHU216HW,2013-04-24 11:27:00,
2013-04-24 07:32:00,39.2,-12.8,29.24,North,0,0.0,0.0,1,0.08,,,0.71,WUHU216HW,2013-04-24 11:32:00,
2013-04-24 07:38:00,39.2,-12.8,29.24,North,0,0.0,0.0,1,0.08,,,0.72,WUHU216HW,2013-04-24 11:38:00,
2013-04-24 07:43:00,39.2,-12.8,29.24,North,0,0.0,0.0,1,0.09,,,0.73,WUHU216HW,2013-04-24 11:43:00,
2013-04-24 07:48:00,39.2,-12.8,29.25,North,0,0.0,0.0,1,0.10,,,0.75,WUHU216HW,2013-04-24 11:48:00,
2013-04-24 07:53:00,39.1,-13.0,29.24,North,0,0.0,0.0,1,0.10,,,0.75,WUHU216HW,2013-04-24 11:53:00,
2013-04-24 07:58:00,39.1,-13.0,29.25,North,0,0.0,0.0,1,0.11,,,0.77,WUHU216HW,2013-04-24 11:58:00,
2013-04-24 08:03:00,38.9,-13.0,29.26,North,0,0.0,0.0,1,0.12,,,0.78,WUHU216HW,2013-04-24 12:03:00,
2013-04-24 08:08:00,38.9,-13.0,29.26,North,0,0.0,0.0,1,0.12,,,0.79,WUHU216HW,2013-04-24 12:08:00,
2013-04-24 08:13:00,38.9,-13.0,29.25,North,0,0.0,0.0,1,0.12,,,0.80,WUHU216HW,2013-04-24 12:13:00,
2013-04-24 08:19:00,38.9,-13.0,29.24,North,0,0.0,0.0,1,0.14,,,0.82,WUHU216HW,2013-04-24 12:19:00,
2013-04-24 08:24:00,38.9,-13.0,29.22,North,0,0.0,0.0,1,0.13,,,0.83,WUHU216HW,2013-04-24 12:24:00,
2013-04-24 08:29:00,38.9,-13.0,29.24,North,0,0.0,0.0,1,0.13,,,0.84,WUHU216HW,2013-04-24 12:29:00,
2013-04-24 08:34:00,38.9,-13.0,29.24,North,0,0.0,0.0,1,0.12,,,0.84,WUHU216HW,2013-04-24 12:34:00,
2013-04-24 08:39:00,38.9,-13.0,29.24,North,0,0.0,0.0,1,0.11,,,0.84,WUHU216HW,2013-04-24 12:39:00,
2013-04-24 08:44:00,38.9,-13.0,29.24,North,0,0.0,0.0,1,0.10,,,0.84,WUHU216HW,2013-04-24 12:44:00,
2013-04-24 08:49:00,38.9,-13.0,29.24,North,0,0.0,0.0,1,0.09,,,0.85,WUHU216HW,2013-04-24 12:49:00,
2013-04-24 08:54:00,38.7,-13.2,29.24,North,0,0.0,0.0,1,0.09,,,0.85,WUHU216HW,2013-04-24 12:54:00,
2013-04-24 09:00:00,38.5,-13.3,29.24,North,0,0.0,0.0,1,0.08,,,0.86,WUHU216HW,2013-04-24 13:00:00,
2013-04-24 09:05:00,38.5,-13.3,29.23,North,0,0.0,0.0,1,0.08,,,0.87,WUHU216HW,2013-04-24 13:05:00,
2013-04-24 09:10:00,38.5,-13.3,29.24,North,0,0.0,0.0,1,0.06,,,0.87,WUHU216HW,2013-04-24 13:10:00,
2013-04-24 09:15:00,38.5,-13.3,29.25,North,0,0.0,0.0,1,0.06,,,0.88,WUHU216HW,2013-04-24 13:15:00,
2013-04-24 09:20:00,38.3,-13.5,29.26,North,0,0.0,0.0,1,0.05,,,0.88,WUHU216HW,2013-04-24 13:20:00,
2013-04-24 09:25:00,38.3,-13.5,29.24,North,0,0.0,0.0,1,0.04,,,0.88,WUHU216HW,2013-04-24 13:25:00,
2013-04-24 09:30:00,38.3,-13.5,29.26,North,0,0.0,0.0,1,0.04,,,0.88,WUHU216HW,2013-04-24 13:30:00,
2013-04-24 09:35:00,38.5,-13.3,29.26,North,0,0.0,0.0,1,0.04,,,0.88,WUHU216HW,2013-04-24 13:35:00,
2013-04-24 09:41:00,38.5,-13.3,29.27,North,0,0.0,0.0,1,0.04,,,0.88,WUHU216HW,2013-04-24 13:41:00,
2013-04-24 09:46:00,38.5,-13.3,29.28,North,0,0.0,0.0,1,0.03,,,0.88,WUHU216HW,2013-04-24 13:46:00,
2013-04-24 09:51:00,38.3,-13.5,29.27,North,0,0.0,0.0,1,0.03,,,0.88,WUHU216HW,2013-04-24 13:51:00,
2013-04-24 09:56:00,38.3,-13.5,29.28,North,0,0.0,0.0,1,0.02,,,0.88,WUHU216HW,2013-04-24 13:56:00,
2013-04-24 10:01:00,38.2,-13.7,29.26,North,0,0.0,0.0,1,0.01,,,0.88,WUHU216HW,2013-04-24 14:01:00,
2013-04-24 10:06:00,38.2,-13.7,29.26,North,0,0.0,0.0,1,0.01,,,0.88,WUHU216HW,2013-04-24 14:06:00,
2013-04-24 10:11:00,38.0,-13.8,29.25,North,0,0.0,0.0,1,0.00,,,0.88,WUHU216HW,2013-04-24 14:11:00,
2013-04-24 10:16:00,38.2,-13.7,29.25,North,0,0.0,0.0,1,0.00,,,0.88,WUHU216HW,2013-04-24 14:16:00,
2013-04-24 10:22:00,38.3,-13.5,29.26,North,0,0.0,0.0,1,0.00,,,0.88,WUHU216HW,2013-04-24 14:22:00,
2013-04-24 10:27:00,38.2,-13.7,29.27,North,0,0.0,0.0,1,0.00,,,0.88,WUHU216HW,2013-04-24 14:27:00,
2013-04-24 10:32:00,38.2,-13.7,29.27,North,0,0.0,0.0,1,0.01,,,0.89,WUHU216HW,2013-04-24 14:32:00,
2013-04-24 10:37:00,38.2,-13.7,29.28,North,0,0.0,0.0,1,0.01,,,0.89,WUHU216HW,2013-04-24 14:37:00,
2013-04-24 10:42:00,38.3,-13.5,29.28,North,0,0.0,0.0,1,0.01,,,0.89,WUHU216HW,2013-04-24 14:42:00,
2013-04-24 10:47:00,38.5,-13.3,29.27,North,0,0.0,0.0,1,0.01,,,0.89,WUHU216HW,2013-04-24 14:47:00,
2013-04-24 10:52:00,38.7,-13.2,29.27,North,0,0.0,0.0,1,0.01,,,0.89,WUHU216HW,2013-04-24 14:52:00,
2013-04-24 10:57:00,39.2,-12.8,29.28,North,0,0.0,0.0,1,0.01,,,0.89,WUHU216HW,2013-04-24 14:57:00,
2013-04-24 11:03:00,39.2,-12.8,29.28,North,0,0.0,0.0,1,0.01,,,0.89,WUHU216HW,2013-04-24 15:03:00,
2013-04-24 11:09:00,39.2,-12.8,29.29,North,0,0.0,0.0,1,0.01,,,0.89,WUHU216HW,2013-04-24 15:09:00,
2013-04-24 11:14:00,39.4,-12.6,29.29,North,0,0.0,0.0,1,0.01,,,0.89,WUHU216HW,2013-04-24 15:14:00,
2013-04-24 11:19:00,39.4,-12.6,29.30,North,0,0.0,0.0,1,0.01,,,0.89,WUHU216HW,2013-04-24 15:19:00,
2013-04-24 11:24:00,39.2,-12.8,29.31,North,0,0.0,0.0,1,0.01,,,0.89,WUHU216HW,2013-04-24 15:24:00,
2013-04-24 11:29:00,39.2,-12.8,29.31,North,0,0.0,0.0,1,0.00,,,0.89,WUHU216HW,2013-04-24 15:29:00,
2013-04-24 11:35:00,39.2,-12.8,29.32,North,0,0.0,0.0,1,0.00,,,0.89,WUHU216HW,2013-04-24 15:35:00,
2013-04-24 11:40:00,39.2,-12.8,29.32,North,0,0.0,0.0,1,0.00,,,0.89,WUHU216HW,2013-04-24 15:40:00,
2013-04-24 11:45:00,39.2,-12.8,29.32,North,0,0.0,0.0,1,0.00,,,0.89,WUHU216HW,2013-04-24 15:45:00,
2013-04-24 11:50:00,39.2,-12.8,29.32,North,0,0.0,0.0,1,0.00,,,0.89,WUHU216HW,2013-04-24 15:50:00,
2013-04-24 11:55:00,39.4,-12.6,29.33,North,0,0.0,0.0,1,0.00,,,0.89,WUHU216HW,2013-04-24 15:55:00,
2013-04-24 12:00:00,39.4,-12.6,29.33,North,0,0.0,0.0,1,0.00,,,0.89,WUHU216HW,2013-04-24 16:00:00,
2013-04-24 12:05:00,38.9,-13.0,29.34,North,0,0.0,0.0,1,0.00,,,0.89,WUHU216HW,2013-04-24 16:05:00,
2013-04-24 12:10:00,38.9,-13.0,29.34,North,0,0.0,0.0,1,0.00,,,0.89,WUHU216HW,2013-04-24 16:10:00,
2013-04-24 12:15:00,38.9,-13.0,29.34,North,0,0.0,0.0,1,0.00,,,0.89,WUHU216HW,2013-04-24 16:15:00,
2013-04-24 12:21:00,39.2,-12.8,29.34,North,0,0.0,0.0,1,0.00,,,0.89,WUHU216HW,2013-04-24 16:21:00,
2013-04-24 12:26:00,39.8,-12.3,29.34,North,0,0.0,0.0,1,0.00,,,0.89,WUHU216HW,2013-04-24 16:26:00,
2013-04-24 12:31:00,39.6,-12.5,29.35,North,0,0.0,0.0,1,0.00,,,0.89,WUHU216HW,2013-04-24 16:31:00,
2013-04-24 12:36:00,39.8,-12.3,29.35,North,0,0.0,0.0,1,0.01,,,0.90,WUHU216HW,2013-04-24 16:36:00,
2013-04-24 12:41:00,40.0,-12.2,29.35,North,0,0.0,0.0,1,0.01,,,0.90,WUHU216HW,2013-04-24 16:41:00,
2013-04-24 12:46:00,39.8,-12.3,29.36,North,0,0.0,0.0,1,0.01,,,0.90,WUHU216HW,2013-04-24 16:46:00,
2013-04-24 12:51:00,40.0,-12.2,29.36,North,0,0.0,0.0,1,0.01,,,0.90,WUHU216HW,2013-04-24 16:51:00,
2013-04-24 12:56:00,40.5,-11.8,29.36,North,0,0.0,0.0,1,0.01,,,0.90,WUHU216HW,2013-04-24 16:56:00,
2013-04-24 13:02:00,41.0,-11.3,29.37,North,0,0.0,0.0,1,0.01,,,0.90,WUHU216HW,2013-04-24 17:02:00,
2013-04-24 13:07:00,41.2,-11.2,29.37,North,0,0.0,0.0,1,0.01,,,0.90,WUHU216HW,2013-04-24 17:07:00,
2013-04-24 13:12:00,41.6,-11.0,29.37,North,0,0.0,0.0,1,0.01,,,0.90,WUHU216HW,2013-04-24 17:12:00,
2013-04-24 13:17:00,41.8,-10.8,29.37,North,0,0.0,0.0,1,0.01,,,0.90,WUHU216HW,2013-04-24 17:17:00,
2013-04-24 13:22:00,41.9,-10.7,29.38,North,0,0.0,0.0,1,0.01,,,0.90,WUHU216HW,2013-04-24 17:22:00,
2013-04-24 13:27:00,42.3,-10.4,29.38,North,0,0.0,0.0,2,0.01,,,0.90,WUHU216HW,2013-04-24 17:27:00,
2013-04-24 13:32:00,42.3,-10.4,29.38,North,0,0.0,0.0,7,0.00,,,0.90,WUHU216HW,2013-04-24 17:32:00,
2013-04-24 13:37:00,42.3,-10.4,29.38,North,0,0.0,0.0,7,0.00,,,0.90,WUHU216HW,2013-04-24 17:37:00,
2013-04-24 13:43:00,42.8,-10.1,29.39,North,0,0.0,0.0,3,0.00,,,0.90,WUHU216HW,2013-04-24 17:43:00,
2013-04-24 13:48:00,42.5,-10.3,29.40,North,0,0.0,0.0,10,0.00,,,0.90,WUHU216HW,2013-04-24 17:48:00,
2013-04-24 13:53:00,42.3,-4.7,29.40,North,0,0.0,0.0,14,0.00,,,0.90,WUHU216HW,2013-04-24 17:53:00,
2013-04-24 13:58:00,42.1,-10.6,29.39,North,0,0.0,0.0,5,0.00,,,0.90,WUHU216HW,2013-04-24 17:58:00,
2013-04-24 14:03:00,42.3,-9.0,29.39,North,0,0.0,0.0,11,0.00,,,0.90,WUHU216HW,2013-04-24 18:03:00,
2013-04-24 14:08:00,42.8,-10.1,29.39,North,0,0.0,0.0,7,0.00,,,0.90,WUHU216HW,2013-04-24 18:08:00,
2013-04-24 14:13:00,43.6,-9.5,29.39,North,0,0.0,0.0,9,0.00,,,0.90,WUHU216HW,2013-04-24 18:13:00,
2013-04-24 14:18:00,43.6,-8.0,29.39,North,0,0.0,0.0,11,0.00,,,0.90,WUHU216HW,2013-04-24 18:18:00,
2013-04-24 14:24:00,44.3,-3.1,29.39,North,0,0.0,0.0,14,0.00,,,0.90,WUHU216HW,2013-04-24 18:24:00,
2013-04-24 14:29:00,44.3,6.7,29.40,North,0,0.0,0.0,21,0.00,,,0.90,WUHU216HW,2013-04-24 18:29:00,
2013-04-24 14:34:00,43.9,-9.2,29.41,North,0,0.0,0.0,7,0.00,,,0.90,WUHU216HW,2013-04-24 18:34:00,
2013-04-24 14:39:00,44.3,2.9,29.41,North,0,0.0,0.0,18,0.00,,,0.90,WUHU216HW,2013-04-24 18:39:00,
2013-04-24 14:44:00,43.9,-1.9,29.41,North,0,0.0,0.0,15,0.00,,,0.90,WUHU216HW,2013-04-24 18:44:00,
2013-04-24 14:49:00,44.3,-8.9,29.41,North,0,0.0,0.0,10,0.00,,,0.90,WUHU216HW,2013-04-24 18:49:00,
2013-04-24 14:54:00,45.5,10.6,29.41,North,0,0.0,0.0,24,0.00,,,0.90,WUHU216HW,2013-04-24 18:54:00,
2013-04-24 14:59:00,45.7,7.9,29.42,North,0,0.0,0.0,21,0.00,,,0.90,WUHU216HW,2013-04-24 18:59:00,
2013-04-24 15:05:00,45.7,8.8,29.42,North,0,0.0,0.0,22,0.00,,,0.90,WUHU216HW,2013-04-24 19:05:00,
2013-04-24 15:10:00,45.2,6.6,29.42,North,0,0.0,0.0,20,0.00,,,0.90,WUHU216HW,2013-04-24 19:10:00,
2013-04-24 15:15:00,45.0,8.2,29.42,North,0,0.0,0.0,22,0.00,,,0.90,WUHU216HW,2013-04-24 19:15:00,
2013-04-24 15:20:00,45.0,14.6,29.42,North,0,0.0,0.0,29,0.00,,,0.90,WUHU216HW,2013-04-24 19:20:00,
2013-04-24 15:25:00,45.2,3.6,29.42,North,0,0.0,0.0,18,0.00,,,0.90,WUHU216HW,2013-04-24 19:25:00,
2013-04-24 15:30:00,45.0,3.4,29.42,North,0,0.0,0.0,18,0.00,,,0.90,WUHU216HW,2013-04-24 19:30:00,
2013-04-24 15:35:00,45.4,2.3,29.43,North,0,0.0,0.0,17,0.00,,,0.90,WUHU216HW,2013-04-24 19:35:00,
2013-04-24 15:40:00,45.9,9.9,29.43,North,0,0.0,0.0,23,0.00,,,0.90,WUHU216HW,2013-04-24 19:40:00,
2013-04-24 15:46:00,47.0,12.6,29.43,North,0,0.0,0.0,25,0.00,,,0.90,WUHU216HW,2013-04-24 19:46:00,
2013-04-24 15:51:00,47.2,2.3,29.43,North,0,0.0,0.0,16,0.00,,,0.90,WUHU216HW,2013-04-24 19:51:00,
2013-04-24 15:56:00,47.3,16.4,29.43,North,0,0.0,0.0,29,0.00,,,0.90,WUHU216HW,2013-04-24 19:56:00,
2013-04-24 16:01:00,45.9,8.0,29.43,North,0,0.0,0.0,21,0.00,,,0.90,WUHU216HW,2013-04-24 20:01:00,
2013-04-24 16:06:00,46.4,-7.5,29.43,North,0,0.0,0.0,10,0.00,,,0.90,WUHU216HW,2013-04-24 20:06:00,
2013-04-24 16:11:00,46.3,0.0,29.43,North,0,0.0,0.0,15,0.00,,,0.90,WUHU216HW,2013-04-24 20:11:00,
2013-04-24 16:16:00,45.0,-6.8,29.43,North,0,0.0,0.0,11,0.00,,,0.90,WUHU216HW,2013-04-24 20:16:00,
2013-04-24 16:21:00,42.1,-10.6,29.44,North,0,0.0,0.0,1,0.01,,,0.91,WUHU216HW,2013-04-24 20:21:00,
2013-04-24 16:27:00,43.4,-9.6,29.44,North,0,0.0,0.0,1,0.02,,,0.92,WUHU216HW,2013-04-24 20:27:00,
2013-04-24 16:32:00,46.1,-7.5,29.44,North,0,0.0,0.0,1,0.02,,,0.92,WUHU216HW,2013-04-24 20:32:00,
2013-04-24 16:37:00,47.0,-6.7,29.44,North,0,0.0,0.0,1,0.02,,,0.92,WUHU216HW,2013-04-24 20:37:00,
2013-04-24 16:42:00,46.4,-7.2,29.44,North,0,0.0,0.0,2,0.02,,,0.92,WUHU216HW,2013-04-24 20:42:00,
2013-04-24 16:47:00,46.1,-7.5,29.44,North,0,0.0,0.0,7,0.02,,,0.92,WUHU216HW,2013-04-24 20:47:00,
2013-04-24 16:52:00,45.0,-8.4,29.44,North,0,0.0,0.0,3,0.02,,,0.92,WUHU216HW,2013-04-24 20:52:00,
2013-04-24 16:57:00,43.9,-9.2,29.44,North,0,0.0,0.0,1,0.02,,,0.92,WUHU216HW,2013-04-24 20:57:00,
2013-04-24 17:02:00,44.3,-8.9,29.45,North,0,0.0,0.0,1,0.02,,,0.92,WUHU216HW,2013-04-24 21:02:00,
2013-04-24 17:08:00,47.3,-6.5,29.44,North,0,0.0,0.0,1,0.02,,,0.92,WUHU216HW,2013-04-24 21:08:00,
2013-04-24 17:13:00,49.0,-5.2,29.45,North,0,0.0,0.0,7,0.02,,,0.92,WUHU216HW,2013-04-24 21:13:00,
2013-04-24 17:18:00,48.6,-2.5,29.45,North,0,0.0,0.0,12,0.01,,,0.92,WUHU216HW,2013-04-24 21:18:00,
2013-04-24 17:23:00,46.3,4.5,29.45,North,0,0.0,0.0,18,0.00,,,0.92,WUHU216HW,2013-04-24 21:23:00,
2013-04-24 17:28:00,46.1,-4.5,29.45,North,0,0.0,0.0,12,0.00,,,0.92,WUHU216HW,2013-04-24 21:28:00,
2013-04-24 17:33:00,45.9,-7.6,29.45,North,0,0.0,0.0,9,0.00,,,0.92,WUHU216HW,2013-04-24 21:33:00,
2013-04-24 17:38:00,49.3,11.9,29.45,North,0,0.0,0.0,22,0.00,,,0.92,WUHU216HW,2013-04-24 21:38:00,
2013-04-24 17:43:00,52.0,0.1,29.46,North,0,0.0,0.0,12,0.00,,,0.92,WUHU216HW,2013-04-24 21:43:00,
2013-04-24 17:49:00,50.0,6.9,29.46,North,0,0.0,0.0,17,0.00,,,0.92,WUHU216HW,2013-04-24 21:49:00,
2013-04-24 17:54:00,48.4,21.8,29.46,North,0,0.0,0.0,35,0.00,,,0.92,WUHU216HW,2013-04-24 21:54:00,
2013-04-24 17:59:00,48.1,19.5,29.46,North,0,0.0,0.0,32,0.00,,,0.92,WUHU216HW,2013-04-24 21:59:00,
2013-04-24 18:04:00,49.3,21.2,29.46,North,0,0.0,0.0,33,0.00,,,0.92,WUHU216HW,2013-04-24 22:04:00,
2013-04-24 18:09:00,50.0,27.7,29.47,North,0,0.0,0.0,42,0.00,,,0.92,WUHU216HW,2013-04-24 22:09:00,
2013-04-24 18:14:00,49.1,27.5,29.47,North,0,0.0,0.0,43,0.00,,,0.92,WUHU216HW,2013-04-24 22:14:00,
2013-04-24 18:19:00,48.4,28.5,29.47,North,0,0.0,0.0,46,0.00,,,0.92,WUHU216HW,2013-04-24 22:19:00,
2013-04-24 18:24:00,47.9,24.0,29.47,North,0,0.0,0.0,39,0.00,,,0.92,WUHU216HW,2013-04-24 22:24:00,
2013-04-24 18:30:00,47.2,25.1,29.47,North,0,0.0,0.0,42,0.00,,,0.92,WUHU216HW,2013-04-24 22:30:00,
2013-04-24 18:35:00,47.5,22.4,29.47,North,0,0.0,0.0,37,0.00,,,0.92,WUHU216HW,2013-04-24 22:35:00,
2013-04-24 18:40:00,47.9,25.7,29.48,North,0,0.0,0.0,42,0.00,,,0.92,WUHU216HW,2013-04-24 22:40:00,
2013-04-24 18:45:00,48.2,28.8,29.48,North,0,0.0,0.0,47,0.00,,,0.92,WUHU216HW,2013-04-24 22:45:00,
2013-04-24 18:50:00,47.9,27.9,29.48,North,0,0.0,0.0,46,0.00,,,0.92,WUHU216HW,2013-04-24 22:50:00,
2013-04-24 18:55:00,47.2,28.9,29.48,North,0,0.0,0.0,49,0.00,,,0.92,WUHU216HW,2013-04-24 22:55:00,
2013-04-24 19:00:00,47.5,29.8,29.48,North,0,0.0,0.0,50,0.00,,,0.92,WUHU216HW,2013-04-24 23:00:00,
2013-04-24 19:05:00,48.6,31.2,29.49,North,0,0.0,0.0,51,0.00,,,0.92,WUHU216HW,2013-04-24 23:05:00,
2013-04-24 19:10:00,49.1,32.2,29.49,North,0,0.0,0.0,52,0.00,,,0.92,WUHU216HW,2013-04-24 23:10:00,
2013-04-24 19:15:00,48.2,30.9,29.49,North,0,0.0,0.0,51,0.00,,,0.92,WUHU216HW,2013-04-24 23:15:00,
2013-04-24 19:21:00,47.9,31.1,29.49,North,0,0.0,0.0,52,0.00,,,0.92,WUHU216HW,2013-04-24 23:21:00,
2013-04-24 19:26:00,47.9,30.6,29.49,North,0,0.0,0.0,51,0.00,,,0.92,WUHU216HW,2013-04-24 23:26:00,
2013-04-24 19:31:00,47.9,30.1,29.49,North,0,0.0,0.0,50,0.00,,,0.92,WUHU216HW,2013-04-24 23:31:00,
2013-04-24 19:36:00,47.2,28.9,29.49,North,0,0.0,0.0,49,0.00,,,0.92,WUHU216HW,2013-04-24 23:36:00,
2013-04-24 19:41:00,46.8,30.1,29.49,North,0,0.0,0.0,52,0.00,,,0.92,WUHU216HW,2013-04-24 23:41:00,
2013-04-24 19:46:00,46.3,29.5,29.50,North,0,0.0,0.0,52,0.00,,,0.92,WUHU216HW,2013-04-24 23:46:00,
2013-04-24 19:51:00,46.1,29.8,29.50,North,0,0.0,0.0,53,0.00,,,0.92,WUHU216HW,2013-04-24 23:51:00,
2013-04-24 19:56:00,45.9,29.7,29.50,North,0,0.0,0.0,53,0.00,,,0.92,WUHU216HW,2013-04-24 23:56:00,
2013-04-24 20:02:00,45.5,28.9,29.50,North,0,0.0,0.0,52,0.00,,,0.92,WUHU216HW,2013-04-25 00:02:00,
2013-04-24 20:07:00,45.4,28.7,29.50,North,0,0.0,0.0,52,0.00,,,0.92,WUHU216HW,2013-04-25 00:07:00,
2013-04-24 20:12:00,45.0,28.5,29.50,North,0,0.0,0.0,52,0.00,,,0.92,WUHU216HW,2013-04-25 00:12:00,
2013-04-24 20:17:00,44.6,28.5,29.50,North,0,0.0,0.0,53,0.00,,,0.92,WUHU216HW,2013-04-25 00:17:00,
2013-04-24 20:22:00,44.5,27.9,29.51,North,0,0.0,0.0,52,0.00,,,0.92,WUHU216HW,2013-04-25 00:22:00,
2013-04-24 20:27:00,44.3,27.7,29.51,North,0,0.0,0.0,52,0.00,,,0.92,WUHU216HW,2013-04-25 00:27:00,
2013-04-24 20:32:00,43.9,27.0,29.51,North,0,0.0,0.0,51,0.00,,,0.92,WUHU216HW,2013-04-25 00:32:00,
2013-04-24 20:37:00,43.9,27.0,29.52,North,0,0.0,0.0,51,0.00,,,0.92,WUHU216HW,2013-04-25 00:37:00,
2013-04-24 20:42:00,43.6,27.1,29.52,North,0,0.0,0.0,52,0.00,,,0.92,WUHU216HW,2013-04-25 00:42:00,
2013-04-24 20:47:00,43.6,26.2,29.52,North,0,0.0,0.0,50,0.00,,,0.92,WUHU216HW,2013-04-25 00:47:00,
2013-04-24 20:53:00,43.2,25.4,29.52,North,0,0.0,0.0,49,0.00,,,0.92,WUHU216HW,2013-04-25 00:53:00,
2013-04-24 20:58:00,43.0,25.2,29.52,North,0,0.0,0.0,49,0.00,,,0.92,WUHU216HW,2013-04-25 00:58:00,
2013-04-24 21:03:00,43.0,24.7,29.53,North,0,0.0,0.0,48,0.00,,,0.92,WUHU216HW,2013-04-25 01:03:00,
2013-04-24 21:08:00,42.8,23.9,29.53,North,0,0.0,0.0,47,0.00,,,0.92,WUHU216HW,2013-04-25 01:08:00,
2013-04-24 21:13:00,42.3,23.4,29.54,North,0,0.0,0.0,47,0.00,,,0.92,WUHU216HW,2013-04-25 01:13:00,
2013-04-24 21:18:00,42.1,22.7,29.54,North,0,0.0,0.0,46,0.00,,,0.92,WUHU216HW,2013-04-25 01:18:00,
2013-04-24 21:23:00,41.8,21.9,29.54,North,0,0.0,0.0,45,0.00,,,0.92,WUHU216HW,2013-04-25 01:23:00,
2013-04-24 21:28:00,41.8,20.8,29.54,North,0,0.0,0.0,43,0.00,,,0.92,WUHU216HW,2013-04-25 01:28:00,
2013-04-24 21:34:00,41.6,20.1,29.55,North,0,0.0,0.0,42,0.00,,,0.92,WUHU216HW,2013-04-25 01:34:00,
2013-04-24 21:39:00,41.4,18.9,29.55,North,0,0.0,0.0,40,0.00,,,0.92,WUHU216HW,2013-04-25 01:39:00,
2013-04-24 21:44:00,41.2,17.4,29.55,North,0,0.0,0.0,38,0.00,,,0.92,WUHU216HW,2013-04-25 01:44:00,
2013-04-24 21:49:00,41.2,15.5,29.55,North,0,0.0,0.0,35,0.00,,,0.92,WUHU216HW,2013-04-25 01:49:00,
2013-04-24 21:54:00,41.2,15.5,29.55,North,0,0.0,0.0,35,0.00,,,0.92,WUHU216HW,2013-04-25 01:54:00,
2013-04-24 21:59:00,41.0,14.7,29.55,North,0,0.0,0.0,34,0.00,,,0.92,WUHU216HW,2013-04-25 01:59:00,
2013-04-24 22:04:00,40.7,13.1,29.55,North,0,0.0,0.0,32,0.00,,,0.92,WUHU216HW,2013-04-25 02:04:00,
2013-04-24 22:09:00,40.3,12.1,29.55,North,0,0.0,0.0,31,0.00,,,0.92,WUHU216HW,2013-04-25 02:09:00,
2013-04-24 22:14:00,40.0,10.2,29.55,North,0,0.0,0.0,29,0.00,,,0.92,WUHU216HW,2013-04-25 02:14:00,
2013-04-24 22:20:00,39.8,9.1,29.56,North,0,0.0,0.0,28,0.00,,,0.92,WUHU216HW,2013-04-25 02:20:00,
2013-04-24 22:25:00,39.4,6.1,29.56,North,0,0.0,0.0,25,0.00,,,0.92,WUHU216HW,2013-04-25 02:25:00,
2013-04-24 22:30:00,39.4,5.2,29.56,North,0,0.0,0.0,24,0.00,,,0.92,WUHU216HW,2013-04-25 02:30:00,
2013-04-24 22:35:00,39.2,3.2,29.56,North,0,0.0,0.0,22,0.00,,,0.92,WUHU216HW,2013-04-25 02:35:00,
2013-04-24 22:40:00,39.2,2.3,29.56,North,0,0.0,0.0,21,0.00,,,0.92,WUHU216HW,2013-04-25 02:40:00,
2013-04-24 22:45:00,39.1,-1.5,29.56,North,0,0.0,0.0,18,0.00,,,0.92,WUHU216HW,2013-04-25 02:45:00,
2013-04-24 22:50:00,39.1,-3.0,29.56,North,0,0.0,0.0,17,0.00,,,0.92,WUHU216HW,2013-04-25 02:50:00,
2013-04-24 22:55:00,39.1,-3.0,29.57,North,0,0.0,0.0,17,0.00,,,0.92,WUHU216HW,2013-04-25 02:55:00,
2013-04-24 23:01:00,38.7,-3.2,29.56,North,0,0.0,0.0,17,0.00,,,0.92,WUHU216HW,2013-04-25 03:01:00,
2013-04-24 23:06:00,38.3,-3.5,29.56,North,0,0.0,0.0,17,0.00,,,0.92,WUHU216HW,2013-04-25 03:06:00,
2013-04-24 23:11:00,38.0,-3.9,29.56,North,0,0.0,0.0,17,0.00,,,0.92,WUHU216HW,2013-04-25 03:11:00,
2013-04-24 23:16:00,37.4,-5.7,29.56,North,0,0.0,0.0,16,0.00,,,0.92,WUHU216HW,2013-04-25 03:16:00,
2013-04-24 23:21:00,37.3,-7.3,29.56,North,0,0.0,0.0,15,0.00,,,0.92,WUHU216HW,2013-04-25 03:21:00,
2013-04-24 23:26:00,36.9,-7.6,29.57,North,0,0.0,0.0,15,0.00,,,0.92,WUHU216HW,2013-04-25 03:26:00,
2013-04-24 23:31:00,36.7,-7.6,29.56,North,0,0.0,0.0,15,0.00,,,0.92,WUHU216HW,2013-04-25 03:31:00,
2013-04-24 23:36:00,36.5,-9.3,29.56,North,0,0.0,0.0,14,0.00,,,0.92,WUHU216HW,2013-04-25 03:36:00,
2013-04-24 23:41:00,36.4,-9.3,29.56,North,0,0.0,0.0,14,0.00,,,0.92,WUHU216HW,2013-04-25 03:41:00,
2013-04-24 23:47:00,36.2,-12.4,29.56,North,0,0.0,0.0,12,0.00,,,0.92,WUHU216HW,2013-04-25 03:47:00,
2013-04-24 23:52:00,36.0,-13.9,29.56,North,0,0.0,0.0,11,0.00,,,0.92,WUHU216HW,2013-04-25 03:52:00,
2013-04-24 23:57:00,35.8,-14.1,29.56,North,0,0.0,0.0,11,0.00,,,0.92,WUHU216HW,2013-04-25 03:57:00,